Other Public Products
Issued by NWS Grand Forks, ND

Home | Current Version | Previous Version | Graphics & Text | Print | Product List | Glossary On
Versions: 1 2 3 4 5 6 7 8 9 10 11 12 13 14 15 16 17 18 19 20 21 22 23 24 25 26 27 28 29 30 31 32 33 34 35 36 37 38 39 40 41 42 43 44 45 46 47 48 49 50
000
FPUS83 KFGF 241110
OPUFGF
PRAIRIE TO PINES WEATHER ROUNDUP
NATIONAL WEATHER SERVICE EASTERN NORTH DAKOTA/GRAND FORKS ND
600 AM CDT SAT JUN 24 2017

 **SATELLITE DATA USED TO AUGMENT SKY COVER AT AUTOMATED STATIONS**
 *****  WEATHER ACROSS EASTERN NORTH DAKOTA  *****

CITY           SKY/WX    TMP DP  RH WIND       PRES   REMARKS
GRAND FORKS    CLOUDY    51  45  79 NW12      29.97R
GRAND FORKS AF CLOUDY    49  46  89 NW8       29.98R
GRAND CITY NWS NOT AVBL
BUXTON         NOT AVBL
DEVILS LAKE    MOCLDY    47  42  83 NW13      30.03R
FARGO          CLOUDY    52  41  66 W12       29.99S
WAHPETON ARPT  PTSUNNY   45  39  81 W9        30.03R
$$

 *****  WEATHER ACROSS CENTRAL AND WESTERN NORTH DAKOTA  *****

CITY           SKY/WX    TMP DP  RH WIND       PRES   REMARKS
JAMESTOWN      FAIR      48  42  80 NW15      30.05R
BISMARCK       FAIR      50  41  71 NW10      30.13R
MINOT          MOCLDY    45  40  82 NW17      30.11R
MINOT AFB      MOCLDY    44  40  85 NW15      30.11R
GARRISON         N/A     42  39  89 NW9       30.13R
WILLISTON      FAIR      45  35  68 NW12      30.21R
DICKINSON      FAIR      41  35  79 W8        30.17R
HETTINGER      FAIR      42  31  64 NW9       30.20R
$$

 *****  OTHER OBSERVATIONS NORTHEAST NORTH DAKOTA  *****

CITY           SKY/WX    TMP DP  RH WIND       PRES   REMARKS
WALHALLA       NOT AVBL
LANGDON        PTSUNNY   46  46 100 NW13      30.00R
CAVALIER       FAIR      50  45  81 NW9       29.96S
GRAFTON        PTSUNNY   52  46  82 NW12G18   29.98S
CANDO          NOT AVBL
FORT TOTTEN      N/A     49  44  84 NW7       29.95S
ROLLA          NOT AVBL
RUGBY          NOT AVBL
 ***** THE ABOVE OBSERVATIONS ARE NON NWS ARE NOT QUALITY
        CONTROLLED AND MAY MIS-REPORT RAIN FOR SNOW...
$$

 *****  OTHER OBSERVATIONS SOUTHEAST NORTH DAKOTA *****

CITY           SKY/WX    TMP DP  RH WIND       PRES   REMARKS
COOPERSTOWN    FAIR      48  45  87 W12       30.02R
VALLEY CITY    FAIR      48  45  87 W12G18    30.04S
OAKES          NOT AVBL
GWINNER        NOT AVBL
SHEYENNE NWR     N/A     47  42  81 W5        29.95S
BUFFALO        NOT AVBL
WYNDMERE       NOT AVBL
 ***** THE ABOVE OBSERVATIONS ARE NON NWS ARE NOT QUALITY
       CONTROLLED AND MAY MIS-REPORT RAIN FOR SNOW...
$$

  *****  WEATHER ACROSS NORTHERN MINNESOTA  *****

CITY           SKY/WX    TMP DP  RH WIND       PRES   REMARKS
FLAG ISLAND    FAIR      50  46  87 W10       29.87R
WARROAD        FAIR      46  43  87 SW5       29.92R
ROSEAU         FAIR      46  43  87 W7        29.92R
HALLOCK        CLOUDY    50  46  87 NW12      29.95R
THF RVR FALLS  CLOUDY    49  43  80 W7        29.96R
HALSTAD        NOT AVBL
FOSSTON        CLOUDY    46  41  81 W12       29.97R
BAUDETTE       MOCLDY    49  48  97 W8        29.90R
WASKISH        CLOUDY    52  46  82 W13G18    29.91S
CROOKSTON      CLOUDY    48  45  87 NW6       29.97S
$$
  *****  WEATHER ACROSS CENTRAL AND WEST MINNESOTA  *****

CITY           SKY/WX    TMP DP  RH WIND       PRES   REMARKS
BEMIDJI        CLOUDY    49  43  79 W10       29.94R
PARK RAPIDS    FAIR      47  39  74 W9        29.96R
WADENA         FAIR      46  39  76 W3        29.98R
DETROIT LAKES  FAIR      46  39  76 W8        29.99S
MOORHEAD       CLOUDY    52  39  62 W15       30.00S
FERGUS FALLS   FAIR      43  39  87 W6        30.01R
ELBOW LAKE     FAIR      44  41  89 NW7       30.02S
MORRIS MN      FAIR      46  43  87 W8        30.02S
STAPLES        FAIR      46  39  76 W10       29.98R
WHEATON        MOCLDY    50  39  66 W8        30.06R
$$
  *****  WEATHER ELSEWHERE ACROSS MINNESOTA  *****

CITY           SKY/WX    TMP DP  RH WIND       PRES   REMARKS
DULUTH         CLOUDY    52  48  86 NW10      29.87R
INTRNTL FALLS  CLOUDY    52  49  89 W6        29.87R
ELY            CLOUDY    52  50  93 W5        29.85S
CLOQUET        FAIR      50  45  81 W8        29.89R
BRAINERD       CLOUDY    52  42  69 W12G18    29.96R
HIBBING        CLOUDY    51  47  86 W9G18     29.88R
ALEXANDRIA     FAIR      48  41  76 W9        30.02R
SAINT CLOUD    FAIR      50  42  74 W7        29.99R
MINNEAPOLIS    FAIR      55  45  68 NW12      29.98R
$$

  *****  WEATHER ACROSS SOUTH DAKOTA  *****

CITY           SKY/WX    TMP DP  RH WIND       PRES   REMARKS
SIOUX FALLS    FAIR      45  41  86 CALM      30.11S
BROOKINGS      FAIR      45  40  82 SW3       30.09S
WATERTOWN      FAIR      45  42  89 SW9       30.06S
HURON          FAIR      47  40  76 SW9       30.11R
SISSETON         N/A     49  41  74 NW6       30.05R
ABERDEEN       CLOUDY    49  42  77 W7        30.08R
MITCHELL       FAIR      47  40  76 W3        30.13R
PIERRE         FAIR      44  36  73 NW7       30.14R
MOBRIDGE       FAIR      50  37  61 NW9       30.10R
RAPID CITY     FAIR      46  29  51 NW8       30.24S
$$

  *****  SOME WEATHER IN NEARBY STATES *****

CITY           SKY/WX    TMP DP  RH WIND       PRES   REMARKS
GLASGOW MT     FAIR      43  34  70 E8        30.25R
GREAT FALLS MT MOCLDY    48  41  76 SW7       30.32S
CHEYENNE WY    CLOUDY    51  30  44 E6        30.33F
SCOTTSBLUFF NE CLOUDY    53  42  66 SW3       30.29R
OMAHA NE       FAIR      54  46  74 CALM      30.15R
DES MOINES IA  FAIR      54  46  74 NW7       30.08R
DAVENPORT IA   FAIR      56  53  90 W9        29.99R
CHICAGO IL     FAIR      62  55  77 W8        29.90S
EAU CLAIRE WI  FAIR      53  49  86 W6        29.93R
LA CROSSE WI   FAIR      61  51  70 NW8       29.94S
$$

  *****  SOME NATIONAL WEATHER *****

CITY           SKY/WX    TMP DP  RH WIND       PRES   REMARKS
LA GUARDIA NY  HVY RAIN  72  72 100 NE3       29.57F FOG
RALEIGH NC     PTSUNNY   77  74  90 SW12      29.90R
ATLANTA GA     CLOUDY    73  71  93 SW6       29.99R
NEW ORLEANS LA CLOUDY    78  78 100 CALM      30.01R
OKLAHOMA CITY  CLOUDY    71  51  49 E15       30.13R
ALBUQUERQUE NM FAIR      68  51  54 E18G26    30.21R
SALT LAKE CITY FAIR      64  39  39 S6        30.16R
LOS ANGELES CA CLOUDY    63  61  93 CALM      29.88F FOG
BOISE ID       FAIR      58  38  47 CALM      30.13S
SEATTLE WA     FAIR      64  47  53 N10       30.15S
$$

*** WEATHER ACROSS MANITOBA...SASKATCHEWAN AND ONTARIO ***
                ***ONTARIO***

CITY           SKY/WX    TMP DP  RH WIND       PRES   REMARKS
GERALDTON      MOSUNNY   50  48  93 NW2       29.78R
THUNDER BAY    MOCLDY    55  54  94 SW3       29.79R
SIOUX LOOKOUT  MOCLDY    54  52  94 N3        29.82R
TORONTO        MOSUNNY   64  54  68 NW9       29.70R
BIG TROUT LK   CLOUDY    43  39  87 NE8       29.94R
PICKLE LAKE    MOCLDY    50  46  87 N7        29.86
DRYDEN         RAIN      52  52 100 NW6       29.83R
KENORA         LGT RAIN  50  48  93 W7        29.86R
$$
                *** MANITOBA***

CITY           SKY/WX    TMP DP  RH WIND       PRES   REMARKS
BRANDON        MOCLDY    45  41  87 NW13      30.03R
DAUPHIN        LGT RAIN  48  46  93 NW12      30.05R
ISLAND LAKE    PTCLDY    43  37  81 N9        30.02R
PILOT MOUND      N/A     45  41  87 NW10        N/A
THE PAS        LGT RAIN  48  45  87 N12       30.16R
THOMPSON       CLOUDY    46  41  81 NW3       30.10R
WINNIPEG       DRIZZLE   50  48  93 W14       29.91S FOG
LYNN LAKE      CLOUDY    48  41  76 NW5       30.14R
CHURCHILL      PTSUNNY   46  41  81 SW3       30.02R
GILLAM         MOCLDY    41  37  87 CALM      30.06R
$$
                ***SASKATCHEWAN***

CITY           SKY/WX    TMP DP  RH WIND       PRES   REMARKS
ESTEVAN        PTCLDY    39  39 100 NW12      30.19R
KINDERSLEY     PTCLDY    41  39  93 W2        30.25R
LLOYDMINSTER   CLOUDY    45  43  93 W6        30.23S
PRINCE ALBERT  PTCLDY    37  36  93 CALM      30.26R
REGINA         PTCLDY    36  36 100 NW7       30.23R
YORKTON        CLOUDY    45  41  87 NW9       30.15R



USA.gov is the U.S. government's official web portal to all federal, state and local government web resources and services.